Temp
52 51 50 49 48 49 47 47 46 47 47 46 46 47 47 46 45 47 47 49 51 52
52 51 50 48 52 48 49 50 50 49 46 48 49 47 47 46 45 46 47 49 49 50
52 51 51 50 50 51 49 49 47 50 49 48 48 48 49 48 48 47 47 49 46 46
55 53 53 53 53 54 49 48 46 47 47 47 47 47 45 45 45 46 46 46 46 44
57 57 55 52 49 46 45 46 46 46 46 45 43 43 43 43 44 45 42 41 41 41
57 55 53 50 47 47 47 47 49 49 48 47 45 44 49 48 46 46 45 44 41 38
56 56 56 54 52 51 52 51 51 51 51 50 49 50 50 47 45 43 41 41 40 40
57 57 55 54 54 54 53 53 53 51 50 49 48 48 46 44 43 42 40 39 39 39
56 55 54 54 53 53 52 51 50 48 43 40 44 37 38 42 43 42 42 41 41 39
52 50 49 52 52 49 48 48 44 39 41 38 40 36 37 38 42 41 40 40 40 37
50 40 47 43 38 40 41 36 35 35 35 37 35 36 35 36 36 34 34 33 33 32
40 38 41 35 35 35 35 34 33 34 34 34 34 36 35 34 33 32 32 31 31 31
37 37 36 35 34 35 35 34 36 34 34 34 33 35 34 34 33 31 31 30 29 29
44 38 36 36 35 34 34 34 34 33 33 34 34 34 35 34 33 32 31 31 30 30
MSLP
1013.24 1013.84 1014.67 1014.86 1015.68 1017.30 1016.53 1018.07 1017.66 1019.73 1020.01 1019.75 1020.36 1020.65 1020.76 1020.87 1021.15 1021.67 1022.11 1022.18 1022.23 1022.41
1013.21 1013.62 1015.14 1014.87 1016.53 1017.43 1015.97 1017.55 1018.35 1019.09 1020.50 1020.78 1020.89 1021.40 1021.47 1021.74 1021.70 1021.83 1022.09 1022.47 1022.98 1023.16
1013.17 1013.75 1014.69 1015.14 1015.96 1017.83 1017.59 1018.29 1018.11 1018.84 1019.49 1020.72 1020.56 1020.70 1021.15 1021.74 1022.52 1022.72 1022.55 1023.00 1023.27 1023.25
1013.30 1013.83 1014.34 1014.93 1015.86 1016.37 1017.13 1017.94 1018.70 1019.24 1019.56 1020.26 1020.37 1020.83 1021.53 1021.58 1022.41 1022.89 1022.67 1023.35 1023.72 1023.84
1012.93 1013.47 1014.14 1014.72 1015.65 1016.14 1017.09 1017.91 1018.71 1019.35 1019.96 1020.38 1020.76 1020.82 1021.56 1021.85 1022.21 1022.75 1023.04 1023.61 1024.05 1024.21
1012.68 1013.34 1014.05 1015.00 1015.88 1016.24 1016.80 1017.55 1018.14 1019.03 1019.62 1020.23 1020.66 1021.01 1021.34 1021.55 1021.99 1022.71 1023.14 1023.36 1023.90 1024.08
1012.35 1013.13 1013.91 1014.72 1015.57 1016.26 1016.66 1017.16 1017.90 1018.56 1019.16 1019.98 1020.40 1020.88 1021.33 1021.84 1022.37 1022.97 1023.46 1023.54 1024.05 1024.27
1012.24 1013.09 1013.62 1014.36 1015.08 1015.86 1016.59 1016.94 1017.32 1017.84 1018.79 1019.85 1020.49 1021.02 1021.52 1021.99 1022.27 1022.93 1023.40 1023.67 1024.30 1024.65
1012.01 1012.83 1013.47 1013.92 1014.52 1015.52 1015.98 1017.03 1017.47 1017.80 1018.76 1019.90 1020.73 1021.90 1022.19 1022.28 1022.52 1022.59 1022.84 1023.42 1024.14 1025.07
1011.77 1012.59 1013.46 1014.18 1014.78 1015.23 1015.99 1017.07 1017.93 1018.54 1018.97 1019.72 1020.52 1021.85 1021.90 1022.06 1022.36 1022.85 1023.20 1023.60 1024.07 1024.91
1011.67 1012.76 1013.43 1014.32 1015.11 1015.53 1016.28 1017.22 1018.19 1018.55 1018.95 1019.71 1020.39 1021.35 1022.00 1022.41 1023.08 1023.39 1023.85 1024.42 1024.88 1025.22
1011.17 1012.41 1013.17 1014.16 1015.20 1015.69 1016.28 1017.10 1018.01 1018.61 1019.22 1019.82 1020.46 1021.11 1021.82 1022.39 1023.32 1023.91 1024.19 1024.81 1025.29 1025.53
1010.94 1011.63 1012.94 1013.67 1014.78 1015.70 1016.36 1016.57 1017.52 1018.46 1019.19 1019.86 1020.39 1020.99 1021.58 1022.11 1022.70 1023.44 1024.18 1024.98 1025.49 1025.91
1010.54 1011.52 1012.68 1013.69 1014.66 1015.32 1016.01 1016.58 1017.17 1017.99 1019.00 1019.71 1020.14 1020.79 1021.45 1022.02 1022.40 1022.88 1023.69 1024.35 1025.00 1025.52
Wind_Speed
13 8 9 13 11 9 7 5 11 5 5 7 7 7 6 5 5 5 3 4 2 2
9 10 7 10 9 6 12 8 10 9 7 6 6 4 5 4 6 6 4 5 3 2
10 11 10 10 11 8 9 10 10 10 9 7 6 7 8 6 4 5 5 4 5 3
11 12 12 11 12 13 11 10 9 10 10 9 9 7 6 8 7 6 7 5 4 5
12 12 11 11 11 11 11 10 11 10 9 9 8 8 9 9 8 7 7 6 5 5
11 11 11 12 12 13 13 13 13 13 12 10 9 9 9 7 7 6 6 6 4 4
11 11 11 12 13 14 14 14 14 12 11 10 9 8 8 8 8 7 6 6 4 2
11 12 12 13 13 12 13 13 13 13 11 9 8 7 10 10 9 8 7 7 6 5
12 12 12 13 14 15 14 12 12 12 11 10 7 10 9 8 7 8 8 7 8 9
13 13 11 13 14 13 14 13 13 10 12 10 9 14 13 7 7 7 6 7 8 7
14 12 14 10 10 11 10 11 10 10 9 9 7 15 15 9 6 7 7 6 6 7
13 14 13 12 12 10 10 10 9 9 9 9 9 18 19 14 9 8 9 8 7 8
13 14 14 14 14 9 8 9 8 9 9 11 11 18 21 13 7 9 8 8 7 8
16 13 12 11 10 11 11 10 10 10 9 9 10 13 21 18 8 8 8 8 7 6
Wind_Direction
142 145 168 156 150 181 164 143 127 137 94 106 126 130 117 120 107 123 125 115 105 204
158 136 164 121 151 182 122 137 143 126 130 136 118 110 123 118 125 122 110 109 87 46
132 133 141 133 140 157 137 139 134 149 143 153 134 133 135 118 106 113 114 112 123 127
150 144 145 149 157 154 139 139 142 153 146 150 139 134 116 118 133 126 112 106 92 93
155 151 152 143 143 140 144 145 154 154 155 151 146 138 148 148 146 146 137 124 121 93
160 156 156 150 154 155 153 160 160 166 166 163 156 158 170 160 149 142 132 125 125 102
167 168 163 158 162 165 167 164 164 167 162 164 163 161 157 148 145 141 136 123 106 96
166 168 161 162 162 162 167 165 162 160 157 163 159 167 163 158 160 156 142 133 130 106
163 164 164 161 160 164 160 160 161 153 148 153 164 143 150 160 165 162 156 152 133 123
164 163 163 162 161 158 160 164 161 160 156 153 148 160 153 165 164 168 159 155 150 131
165 157 163 150 153 154 151 155 158 151 143 145 146 160 157 151 118 122 135 139 137 146
156 161 159 156 163 159 151 153 156 153 147 148 153 166 161 155 157 160 158 162 164 159
161 159 163 165 167 160 157 147 148 153 159 165 165 175 171 164 160 164 166 167 164 167
170 162 161 157 167 159 159 153 159 159 163 171 171 175 177 177 170 174 174 177 176 164